Regional Weather Roundup
Issued by NWS

Home | Current Version | Previous Version | Text Only | Print | Product List | Glossary Off
Versions: 1 2 3 4 5 6 7 8 9 10 11 12 13 14 15 16 17 18 19 20 21 22 23 24 25 26 27 28 29 30 31 32 33 34 35 36 37 38 39 40 41 42 43 44 45 46 47 48 49 50

000
ASUS45 KCYS 281910
RWRWY

WYOMING REGIONAL WEATHER ROUNDUP
NATIONAL WEATHER SERVICE CHEYENNE WY
100 PM MDT SAT MAR 28 2015

NOTE:  "FAIR" INDICATES FEW OR NO CLOUDS BELOW 12,000 FEET
WITH NO SIGNIFICANT WEATHER AND/OR OBSTRUCTIONS TO VISIBILITY.

WYZ001-282000-
YELLOWSTONE NATIONAL PARK

CITY           SKY/WX    TMP DP  RH WIND       PRES   REMARKS
LK YELLOWSTONE   N/A     49  25  39 SW9G31    30.05R
W YELLOWSTONE  NOT AVBL

$$
WYZ002>013-054>058-071-098>099-282000-
NORTHERN WYOMING

CITY           SKY/WX    TMP DP  RH WIND       PRES   REMARKS
JACKSON        MOSUNNY   54  27  35 S17G29    30.02F
CODY           FAIR      70  23  17 W21G46    29.79S
GREYBULL       FAIR      76  27  16 SE20G28   29.75F
WORLAND        FAIR      78  28  16 SW25G39   29.77F
SHERIDAN       FAIR      79  25  13 S9        29.70F
BUFFALO        FAIR      75  23  14 SW28G33   29.76F
GILLETTE       FAIR      74  28  18 SW15G26   29.76F
HULETT         FAIR      73  32  21 SW16      29.78F
NEWCASTLE      FAIR      68  30  24 MISG      29.83F

$$
WYZ014>020-022>026-101>103-282000-
CENTRAL WYOMING

CITY           SKY/WX    TMP DP  RH WIND       PRES   REMARKS
BIG PINEY      FAIR      64  23  21 W32G43    30.09F
PINEDALE       FAIR      61  23  23 W25G39    30.07F
DUBOIS         FAIR      55  25  30 W25G36    29.98F
LANDER         FAIR      70  25  18 SW16G53   29.89F
RIVERTON       FAIR      72  20  14 W37G47    29.89F
CASPER         FAIR      73  24  16 SW23G41   29.92F
DOUGLAS        FAIR      75  22  13 W25G36    29.89F

$$
WYZ021-027>030-104>119-282000-
SOUTHERN WYOMING

CITY           SKY/WX    TMP DP  RH WIND       PRES   REMARKS
EVANSTON       FAIR      62  24  23 W31G39    30.18F
KEMMERER       FAIR      61  27  27 SW32G41   30.14F
FORT BRIDGER   FAIR      66  26  21 W32G41    30.18F
ROCK SPRINGS   FAIR      67  25  20 W26G37    30.10F
DIXON          MOCLDY    67  22  18 SW10G18   30.15F
RAWLINS        FAIR      66  25  21 SW25G33   30.07F
SARATOGA       FAIR      64  27  24 W22G29    30.13F
LARAMIE        FAIR      66  21  18 NW22G30   30.08F
CHEYENNE       FAIR      71  21  15 W24G31    30.02F
TORRINGTON     FAIR      77  22  13 W18G25    29.88F
PINE BLUFFS    FAIR      73  21  14 W22G33    29.98F

$$


USA.gov is the U.S. government's official web portal to all federal, state and local government web resources and services.